Starlink 35362

operational
NORAD ID: 65888 Int'l Des: 2025-224 Owner: SPXS Country: US Constellation: starlink
LEOCIRCULAR

About Starlink 35362

Description loading...

Live Position

Loading 3D Globe...

Upcoming Passes

Altitude History

Altitude vs Time

uPlot chart will show altitude changes over time

Two-Line Element Set

1 65888U 25224G 26062.16908470 .00016046 00000-0 55268-3 0 9997
2 65888 53.1600 41.8064 0001427 104.7050 255.4109 15.30201429 23824
Epoch: Mar 3, 2026 • Age: 20 hours

Current Status

Altitude 476.5 km
Velocity 7.63 km/s
Sub-Earth Point 30.03°N, 35.86°W
Launch Date Oct 7, 2025
Age 0.4 years
Type internet

Technical Details

Classification Payload
Mass 575.00 kg
Dry Mass 530.00 kg
Total Mass 575.00 kg
Length 0.30 m
Diameter 4.10 m
Span 29.00 m
Shape Box + pan
Manufacturer SPXS
Bus Type Starlink V2MO
Phase Status In Orbit
Owner/State SPXS/US

Large Constellations

Loading constellations...